Date String (YYYY-MM-DD hh:mm:ss) UTC,Instrument flags,absolute air pressure of the measurement (hPa),sample flow rate (lpm),inlet stack bypass flow (lpm),air temperature of the measurement (°C),ambient temperature measured by the external sensor (°C),aerosol sample conditioner tube jacket temperature (°C),OPC LED temperature (°C),internal box temperature (°C),relative humidity of the measurement (%),span deviation,mass concentration of particles derived from Lorenz-Mie calculation of OPC scattering (μg/m³),mass concentration of particles derived from Lorenz-Mie calculation of OPC scattering (μg/m³),mass concentration of particles derived from Lorenz-Mie calculation of OPC scattering (μg/m³)
DateTimeUTC,F1_M11,P_M11,Q1_M11,Q2_M11,T1_M11,T2_M11,T3_M11,T4_M11,T5_M11,U1_M11,ZSPAN_M11,X2_M11,X0_M11,X1_M11
2023-12-20 19:00:00,SystemResetWarning,0829.3,4.99,000.00,025.9,025.2,000.0,034.0,027.3,10.9,0000.0,0001.59,0005.76,0001.19
2023-12-20 19:01:00,SystemResetWarning,0829.3,4.99,000.00,025.9,025.2,000.0,034.0,027.3,10.9,0000.0,0001.56,0005.72,0001.16
2023-12-20 19:02:00,SystemResetWarning,0829.4,5.00,000.00,025.9,025.2,000.0,034.0,027.3,10.8,0000.0,0001.53,0005.58,0001.13
2023-12-20 19:03:00,SystemResetWarning,0829.3,5.00,000.00,025.9,025.2,000.0,034.1,027.4,10.7,0000.0,0001.52,0005.10,0001.10
2023-12-20 19:04:00,SystemResetWarning,0829.4,5.01,000.00,025.9,025.3,000.0,034.1,027.4,10.7,0000.0,0001.48,0004.28,0001.08
2023-12-20 19:05:00,SystemResetWarning,0829.4,5.01,000.00,025.9,025.3,000.0,034.1,027.4,10.7,0000.0,0001.48,0003.97,0001.06
2023-12-20 19:06:00,SystemResetWarning,0829.4,5.00,000.00,026.0,025.3,000.0,034.1,027.4,10.6,0000.0,0001.49,0003.95,0001.06
2023-12-20 19:07:00,SystemResetWarning,0829.4,5.00,000.00,026.0,025.3,000.0,034.1,027.4,10.6,0000.0,0001.46,0003.91,0001.05
2023-12-20 19:08:00,SystemResetWarning,0829.3,5.00,000.00,026.0,025.3,000.0,034.1,027.4,10.8,0000.0,0001.42,0003.76,0001.04
2023-12-20 19:09:00,SystemResetWarning,0829.3,5.00,000.00,026.0,025.3,000.0,034.1,027.4,10.7,0000.0,0001.37,0003.07,0001.03
2023-12-20 19:10:00,SystemResetWarning,0829.3,5.00,000.00,026.0,025.3,000.0,034.1,027.4,10.7,0000.0,0001.33,0003.32,0001.02
2023-12-20 19:11:00,SystemResetWarning,0829.3,4.99,000.00,026.0,025.3,000.0,034.2,027.4,10.9,0000.0,0001.32,0003.83,0001.02
2023-12-20 19:12:00,SystemResetWarning,0829.3,5.00,000.00,026.0,025.3,000.0,034.2,027.4,11.0,0000.0,0001.36,0003.95,0001.04
2023-12-20 19:13:00,SystemResetWarning,0829.3,5.00,000.00,026.0,025.3,000.0,034.2,027.4,10.8,0000.0,0001.37,0003.98,0001.05
2023-12-20 19:14:00,SystemResetWarning,0829.3,5.00,000.00,026.0,025.4,000.0,034.2,027.5,10.8,0000.0,0001.34,0003.81,0001.06
2023-12-20 19:15:00,SystemResetWarning,0829.3,5.00,000.00,026.1,025.4,000.0,034.2,027.5,10.8,0000.0,0001.36,0003.92,0001.07
2023-12-20 19:16:00,SystemResetWarning,0829.2,5.00,000.00,026.1,025.4,000.0,034.2,027.5,10.8,0000.0,0001.37,0003.91,0001.09
2023-12-20 19:17:00,SystemResetWarning,0829.2,5.00,000.00,026.1,025.4,000.0,034.2,027.5,10.8,0000.0,0001.30,0003.80,0001.08
2023-12-20 19:18:00,SystemResetWarning,0829.2,5.00,000.00,026.1,025.4,000.0,034.2,027.6,10.7,0000.0,0001.33,0004.33,0001.08
2023-12-20 19:19:00,SystemResetWarning,0829.2,5.00,000.00,026.1,025.4,000.0,034.3,027.5,10.8,0000.0,0001.38,0005.32,0001.10
2023-12-20 19:20:00,SystemResetWarning,0829.2,5.00,000.00,026.1,025.5,000.0,034.3,027.5,10.6,0000.0,0001.43,0005.96,0001.11
2023-12-20 19:21:00,SystemResetWarning,0829.2,5.00,000.00,026.1,025.5,000.0,034.3,027.6,10.6,0000.0,0001.44,0005.70,0001.12
2023-12-20 19:22:00,SystemResetWarning,0829.2,5.01,000.00,026.1,025.5,000.0,034.3,027.6,10.8,0000.0,0001.45,0004.54,0001.14
2023-12-20 19:23:00,SystemResetWarning,0829.2,5.01,000.00,026.2,025.5,000.0,034.3,027.6,11.0,0000.0,0001.47,0004.76,0001.14
2023-12-20 19:24:00,SystemResetWarning,0829.1,5.00,000.00,026.2,025.5,000.0,034.3,027.6,10.8,0000.0,0001.46,0005.76,0001.14
2023-12-20 19:25:00,SystemResetWarning,0829.1,5.00,000.00,026.2,025.5,000.0,034.3,027.6,10.7,0000.0,0001.47,0005.83,0001.16
2023-12-20 19:26:00,SystemResetWarning,0829.2,5.00,000.00,026.2,025.5,000.0,034.4,027.6,10.6,0000.0,0001.52,0006.52,0001.17
2023-12-20 19:27:00,SystemResetWarning,0829.1,5.00,000.00,026.2,025.5,000.0,034.4,027.6,10.6,0000.0,0001.60,0007.18,0001.17
2023-12-20 19:28:00,SystemResetWarning,0829.2,5.00,000.00,026.2,025.6,000.0,034.4,027.6,10.5,0000.0,0001.65,0007.88,0001.18
2023-12-20 19:29:00,SystemResetWarning,0829.2,4.99,000.00,026.2,025.6,000.0,034.4,027.6,10.5,0000.0,0001.71,0008.32,0001.18
2023-12-20 19:30:00,SystemResetWarning,0829.2,5.00,000.00,026.2,025.6,000.0,034.4,027.6,10.4,0000.0,0001.75,0007.68,0001.20
2023-12-20 19:31:00,SystemResetWarning,0829.1,5.00,000.00,026.2,025.6,000.0,034.4,027.6,10.4,0000.0,0001.77,0007.58,0001.20
2023-12-20 19:32:00,SystemResetWarning,0829.1,5.00,000.00,026.2,025.6,000.0,034.4,027.6,10.5,0000.0,0001.79,0007.23,0001.21
2023-12-20 19:33:00,SystemResetWarning,0829.1,5.00,000.00,026.3,025.6,000.0,034.4,027.7,10.5,0000.0,0001.85,0007.38,0001.22
2023-12-20 19:34:00,SystemResetWarning,0829.1,5.00,000.00,026.3,025.6,000.0,034.4,027.7,10.5,0000.0,0001.88,0007.50,0001.23
2023-12-20 19:35:00,SystemResetWarning,0829.1,5.00,000.00,026.3,025.6,000.0,034.5,027.7,10.4,0000.0,0001.89,0006.69,0001.24
2023-12-20 19:36:00,SystemResetWarning,0829.1,5.00,000.00,026.3,025.6,000.0,034.5,027.7,10.3,0000.0,0001.93,0006.59,0001.25
2023-12-20 19:37:00,SystemResetWarning,0829.1,5.00,000.00,026.3,025.6,000.0,034.5,027.7,10.4,0000.0,0001.96,0006.37,0001.25
2023-12-20 19:38:00,SystemResetWarning,0829.1,5.01,000.00,026.3,025.7,000.0,034.5,027.7,10.3,0000.0,0001.91,0005.81,0001.26
2023-12-20 19:39:00,SystemResetWarning,0829.1,5.01,000.00,026.3,025.7,000.0,034.5,027.8,10.4,0000.0,0001.89,0005.15,0001.26
2023-12-20 19:40:00,SystemResetWarning,0829.1,5.00,000.00,026.4,025.7,000.0,034.5,027.8,10.2,0000.0,0001.90,0004.61,0001.26
2023-12-20 19:41:00,SystemResetWarning,0829.1,5.00,000.00,026.4,025.7,000.0,034.5,027.8,10.4,0000.0,0001.83,0004.40,0001.26
2023-12-20 19:42:00,SystemResetWarning,0829.1,5.00,000.00,026.4,025.7,000.0,034.5,027.8,10.4,0000.0,0001.81,0004.29,0001.26
2023-12-20 19:43:00,SystemResetWarning,0829.1,4.99,000.00,026.4,025.7,000.0,034.6,027.8,10.3,0000.0,0001.81,0004.23,0001.25
2023-12-20 19:44:00,SystemResetWarning,0829.1,5.00,000.00,026.4,025.8,000.0,034.6,027.9,10.3,0000.0,0001.75,0004.07,0001.23
2023-12-20 19:45:00,SystemResetWarning,0829.1,5.00,000.00,026.4,025.8,000.0,034.6,027.9,10.3,0000.0,0001.70,0003.83,0001.22
2023-12-20 19:46:00,SystemResetWarning,0829.1,5.00,000.00,026.4,025.8,000.0,034.6,027.9,10.3,0000.0,0001.66,0003.65,0001.19
2023-12-20 19:47:00,SystemResetWarning,0829.1,5.00,000.00,026.5,025.8,000.0,034.6,027.9,10.3,0000.0,0001.67,0004.07,0001.18
2023-12-20 19:48:00,SystemResetWarning,0829.1,5.00,000.00,026.5,025.8,000.0,034.6,027.9,10.4,0000.0,0001.63,0004.34,0001.17
2023-12-20 19:49:00,SystemResetWarning,0829.1,5.00,000.00,026.5,025.8,000.0,034.6,027.9,10.3,0000.0,0001.63,0004.28,0001.16
2023-12-20 19:50:00,SystemResetWarning,0829.0,5.00,000.00,026.5,025.8,000.0,034.6,027.9,10.3,0000.0,0001.62,0004.10,0001.16
2023-12-20 19:51:00,SystemResetWarning,0829.0,4.99,000.00,026.5,025.8,000.0,034.7,027.9,10.4,0000.0,0001.61,0004.74,0001.17
2023-12-20 19:52:00,SystemResetWarning,0829.0,5.00,000.00,026.5,025.9,000.0,034.7,027.9,10.4,0000.0,0001.63,0005.44,0001.16
2023-12-20 19:53:00,SystemResetWarning,0829.0,5.00,000.00,026.5,025.9,000.0,034.7,028.0,10.5,0000.0,0001.59,0005.43,0001.15
2023-12-20 19:54:00,SystemResetWarning,0829.0,5.00,000.00,026.6,025.9,000.0,034.7,028.0,10.6,0000.0,0001.61,0005.93,0001.16
2023-12-20 19:55:00,SystemResetWarning,0829.0,5.00,000.00,026.6,025.9,000.0,034.7,028.0,10.7,0000.0,0001.62,0006.19,0001.17
2023-12-20 19:56:00,SystemResetWarning,0829.0,5.00,000.00,026.6,025.9,000.0,034.7,028.0,10.6,0000.0,0001.68,0006.33,0001.21
2023-12-20 19:57:00,SystemResetWarning,0829.0,5.00,000.00,026.6,025.9,000.0,034.7,028.0,10.7,0000.0,0001.76,0006.59,0001.25
2023-12-20 19:58:00,SystemResetWarning,0829.0,5.00,000.00,026.6,025.9,000.0,034.8,028.0,10.7,0000.0,0001.80,0006.80,0001.27
2023-12-20 19:59:00,SystemResetWarning,0829.0,5.00,000.00,026.6,026.0,000.0,034.8,028.1,10.8,0000.0,0001.85,0007.00,0001.30
